| time (UTC) | temp F | wind direction | speed MPH | gust MPH | rain 1hr in | rain 24hr in | rain mn in | humidity % | barometer mb |
| 20260902191538 | 98 | 244 | 3.0 | 7.0 | 0.00 | 0.00 | 0.00 | 48 | 1011.9 |
| 20260902191032 | 98 | 327 | 2.0 | 3.0 | 0.00 | 0.00 | 0.00 | 49 | 1012.2 |
| 20260902190528 | 98 | 220 | 6.0 | 6.0 | 0.00 | 0.00 | 0.00 | 49 | 1012.2 |
| 20260902190024 | 98 | 267 | 4.0 | 6.0 | 0.00 | 0.00 | 0.00 | 48 | 1012.1 |
| 20260902185519 | 98 | 221 | 5.0 | 8.0 | 0.00 | 0.00 | 0.00 | 49 | 1012.2 |
| 20260902185015 | 99 | 245 | 0.0 | 3.0 | 0.00 | 0.00 | 0.00 | 49 | 1012.4 |
| 20260902184510 | 100 | 279 | 3.0 | 7.0 | 0.00 | 0.00 | 0.00 | 48 | 1012.4 |
| 20260902184005 | 99 | 225 | 4.0 | 8.0 | 0.00 | 0.00 | 0.00 | 49 | 1012.4 |
| 20260902183501 | 98 | 280 | 4.0 | 13.0 | 0.00 | 0.00 | 0.00 | 50 | 1012.6 |
| 20260902182957 | 99 | 285 | 1.0 | 5.0 | 0.00 | 0.00 | 0.00 | 49 | 1012.7 |
| 20260902182453 | 98 | 216 | 5.0 | 10.0 | 0.00 | 0.00 | 0.00 | 49 | 1013.0 |
| 20260902181949 | 97 | 188 | 0.0 | 7.0 | 0.00 | 0.00 | 0.00 | 52 | 1013.0 |
| 20260902181445 | 98 | 277 | 3.0 | 10.0 | 0.00 | 0.00 | 0.00 | 49 | 1012.9 |
| 20260902180944 | 98 | 239 | 3.0 | 9.0 | 0.00 | 0.00 | 0.00 | 50 | 1013.2 |
| 20260902180439 | 98 | 226 | 5.0 | 9.0 | 0.00 | 0.00 | 0.00 | 50 | 1013.4 |
| 20260902175936 | 98 | 227 | 9.0 | 12.0 | 0.00 | 0.00 | 0.00 | 50 | 1013.5 |
| 20260902175430 | 97 | 220 | 6.0 | 13.0 | 0.00 | 0.00 | 0.00 | 51 | 1013.5 |
| 20260902174926 | 95 | 225 | 6.0 | 9.0 | 0.00 | 0.00 | 0.00 | 53 | 1013.6 |
| 20260902174423 | 97 | 241 | 7.0 | 13.0 | 0.00 | 0.00 | 0.00 | 51 | 1013.5 |
| 20260902173918 | 97 | 255 | 3.0 | 9.0 | 0.00 | 0.00 | 0.00 | 52 | 1013.9 |
| 20260902173417 | 97 | 265 | 6.0 | 6.0 | 0.00 | 0.00 | 0.00 | 51 | 1013.9 |
| 20260902172912 | 95 | 255 | 5.0 | 8.0 | 0.00 | 0.00 | 0.00 | 53 | 1013.9 |
| 20260902172411 | 96 | 210 | 3.0 | 11.0 | 0.00 | 0.00 | 0.00 | 52 | 1014.1 |
| 20260902171907 | 95 | 236 | 4.0 | 10.0 | 0.00 | 0.00 | 0.00 | 52 | 1014.6 |
| 20260902171402 | 97 | 356 | 4.0 | 10.0 | 0.00 | 0.00 | 0.00 | 50 | 1014.0 |
| 20260902170858 | 96 | 252 | 3.0 | 6.0 | 0.00 | 0.00 | 0.00 | 51 | 1014.3 |
| 20260902170353 | 96 | 270 | 5.0 | 11.0 | 0.00 | 0.00 | 0.00 | 54 | 1014.5 |
| 20260902165848 | 94 | 231 | 11.0 | 14.0 | 0.00 | 0.00 | 0.00 | 54 | 1014.6 |
| 20260902165347 | 93 | 81 | 1.0 | 11.0 | 0.00 | 0.00 | 0.00 | 58 | 1014.6 |
| 20260902164842 | 92 | 270 | 3.0 | 12.0 | 0.00 | 0.00 | 0.00 | 61 | 1014.8 |
| 20260902164337 | 94 | 259 | 6.0 | 9.0 | 0.00 | 0.00 | 0.00 | 57 | 1014.8 |
| 20260902163836 | 92 | 255 | 3.0 | 12.0 | 0.00 | 0.00 | 0.00 | 60 | 1014.8 |
| 20260902163331 | 93 | 234 | 7.0 | 15.0 | 0.00 | 0.00 | 0.00 | 61 | 1014.8 |
| 20260902162829 | 92 | 250 | 7.0 | 13.0 | 0.00 | 0.00 | 0.00 | 65 | 1014.7 |
| 20260902162325 | 92 | 249 | 11.0 | 12.0 | 0.00 | 0.00 | 0.00 | 65 | 1014.9 |
| 20260902161819 | 92 | 230 | 9.0 | 11.0 | 0.00 | 0.00 | 0.00 | 67 | 1014.9 |
| 20260902161315 | 92 | 247 | 12.0 | 13.0 | 0.00 | 0.00 | 0.00 | 67 | 1014.9 |
| 20260902160811 | 90 | 260 | 9.0 | 13.0 | 0.00 | 0.00 | 0.00 | 69 | 1015.0 |
| 20260902160306 | 89 | 243 | 11.0 | 13.0 | 0.00 | 0.00 | 0.00 | 70 | 1014.9 |
| 20260902155804 | 89 | 211 | 3.0 | 11.0 | 0.00 | 0.00 | 0.00 | 72 | 1015.1 |
| 20260902155306 | 90 | 232 | 8.0 | 12.0 | 0.00 | 0.00 | 0.00 | 71 | 1015.1 |
| 20260902154758 | 90 | 252 | 7.0 | 7.0 | 0.00 | 0.00 | 0.00 | 72 | 1015.0 |
| 20260902154254 | 88 | 225 | 4.0 | 9.0 | 0.00 | 0.00 | 0.00 | 75 | 1015.0 |
| 20260902153752 | 88 | 279 | 8.0 | 12.0 | 0.00 | 0.00 | 0.00 | 73 | 1015.0 |
| 20260902153247 | 89 | 218 | 3.0 | 13.0 | 0.00 | 0.00 | 0.00 | 74 | 1015.1 |
| 20260902152737 | 90 | 242 | 9.0 | 10.0 | 0.00 | 0.00 | 0.00 | 73 | 1015.0 |
| 20260902152233 | 88 | 249 | 11.0 | 17.0 | 0.00 | 0.00 | 0.00 | 75 | 1014.8 |
| 20260902151728 | 89 | 260 | 4.0 | 8.0 | 0.00 | 0.00 | 0.00 | 77 | 1014.9 |
| 20260902151229 | 87 | 216 | 9.0 | 11.0 | 0.00 | 0.00 | 0.00 | 77 | 1015.0 |
| 20260902150723 | 87 | 250 | 3.0 | 15.0 | 0.00 | 0.00 | 0.00 | 79 | 1015.0 |
| 20260902150219 | 88 | 223 | 5.0 | 7.0 | 0.00 | 0.00 | 0.00 | 77 | 1014.8 |
| 20260902145718 | 87 | 279 | 5.0 | 9.0 | 0.00 | 0.00 | 0.00 | 78 | 1015.0 |
| 20260902145213 | 87 | 291 | 6.0 | 8.0 | 0.00 | 0.00 | 0.00 | 80 | 1015.0 |
| 20260902144709 | 86 | 253 | 7.0 | 12.0 | 0.00 | 0.00 | 0.00 | 81 | 1015.0 |
| 20260902144205 | 85 | 254 | 6.0 | 13.0 | 0.00 | 0.00 | 0.00 | 83 | 1015.2 |
| 20260902143700 | 86 | 252 | 7.0 | 7.0 | 0.00 | 0.00 | 0.00 | 82 | 1015.2 |
| 20260902143155 | 84 | 273 | 3.0 | 8.0 | 0.00 | 0.00 | 0.00 | 83 | 1015.1 |
| 20260902142651 | 84 | 233 | 7.0 | 9.0 | 0.00 | 0.00 | 0.00 | 85 | 1015.1 |
| 20260902142147 | 83 | 234 | 9.0 | 9.0 | 0.00 | 0.00 | 0.00 | 85 | 1015.0 |
| 20260902141646 | 84 | 226 | 6.0 | 10.0 | 0.00 | 0.00 | 0.00 | 84 | 1015.2 |
| 20260902141141 | 83 | 278 | 6.0 | 14.0 | 0.00 | 0.00 | 0.00 | 85 | 1015.1 |
| 20260902140637 | 85 | 331 | 1.0 | 9.0 | 0.00 | 0.00 | 0.00 | 82 | 1015.0 |
| 20260902140132 | 85 | 243 | 4.0 | 8.0 | 0.00 | 0.00 | 0.00 | 82 | 1015.1 |
| 20260902135631 | 83 | 254 | 4.0 | 9.0 | 0.00 | 0.00 | 0.00 | 84 | 1015.0 |
| 20260902135127 | 82 | 279 | 2.0 | 5.0 | 0.00 | 0.00 | 0.00 | 86 | 1015.3 |
| 20260902134622 | 82 | 227 | 3.0 | 7.0 | 0.00 | 0.00 | 0.00 | 87 | 1015.0 |
| 20260902134121 | 82 | 253 | 6.0 | 6.0 | 0.00 | 0.00 | 0.00 | 87 | 1015.0 |
| 20260902133616 | 81 | 217 | 3.0 | 5.0 | 0.00 | 0.00 | 0.00 | 88 | 1015.0 |
| 20260902133111 | 79 | 259 | 2.0 | 3.0 | 0.00 | 0.00 | 0.00 | 90 | 1014.8 |
| 20260902132606 | 79 | 285 | 0.0 | 2.0 | 0.00 | 0.00 | 0.00 | 92 | 1014.9 |
| 20260902132101 | 78 | 240 | 0.0 | 3.0 | 0.00 | 0.00 | 0.00 | 93 | 1015.0 |
| 20260902131557 | 77 | 249 | 0.0 | 0.0 | 0.00 | 0.00 | 0.00 | 95 | 1014.8 |
| 20260902131052 | 76 | 240 | 0.0 | 1.0 | 0.00 | 0.00 | 0.00 | 95 | 1014.8 |
| 20260902130548 | 75 | 261 | 0.0 | 0.0 | 0.00 | 0.00 | 0.00 | 96 | 1014.7 |
| 20260902130043 | 75 | 261 | 0.0 | 0.0 | 0.00 | 0.00 | 0.00 | 97 | 1014.7 |
| 20260902125539 | 75 | 270 | 0.0 | 2.0 | 0.00 | 0.00 | 0.00 | 98 | 1014.4 |
| 20260902125034 | 74 | 262 | 0.0 | 1.0 | 0.00 | 0.00 | 0.00 | 99 | 1014.5 |
| 20260902124530 | 74 | 254 | 0.0 | 1.0 | 0.00 | 0.00 | 0.00 | 99 | 1014.4 |
| 20260902124025 | 74 | 255 | 0.0 | 0.0 | 0.00 | 0.00 | 0.00 | 99 | 1014.0 |
| 20260902123520 | 73 | 254 | 0.0 | 0.0 | 0.00 | 0.00 | 0.00 | 99 | 1014.3 |
| 20260902123015 | 73 | 261 | 0.0 | 2.0 | 0.00 | 0.00 | 0.00 | 98 | 1014.0 |
| 20260902122509 | 73 | 254 | 0.0 | 0.0 | 0.00 | 0.00 | 0.00 | 99 | 1014.4 |
| 20260902122005 | 73 | 254 | 0.0 | 1.0 | 0.00 | 0.00 | 0.00 | 99 | 1014.2 |
| 20260902121459 | 73 | 63 | 1.0 | 3.0 | 0.00 | 0.00 | 0.00 | 99 | 1014.3 |
| 20260902120954 | 73 | 77 | 2.0 | 2.0 | 0.00 | 0.00 | 0.00 | 99 | 1014.2 |
| 20260902120450 | 73 | 90 | 0.0 | 1.0 | 0.00 | 0.00 | 0.00 | 99 | 1014.0 |
| 20260902115949 | 73 | 270 | 0.0 | 0.0 | 0.00 | 0.00 | 0.00 | 99 | 1013.9 |
| 20260902115446 | 73 | 270 | 0.0 | 0.0 | 0.00 | 0.00 | 0.00 | 99 | 1013.9 |
| 20260902114943 | 73 | 270 | 0.0 | 0.0 | 0.00 | 0.00 | 0.00 | 99 | 1013.7 |
| 20260902114438 | 73 | 15 | 0.0 | 0.0 | 0.00 | 0.00 | 0.00 | 99 | 1013.7 |
| 20260902113933 | 73 | 261 | 0.0 | 0.0 | 0.00 | 0.00 | 0.00 | 99 | 1013.8 |
| 20260902113429 | 73 | 261 | 0.0 | 0.0 | 0.00 | 0.00 | 0.00 | 99 | 1013.8 |
| 20260902112928 | 73 | 74 | 0.0 | 0.0 | 0.00 | 0.00 | 0.00 | 99 | 1014.0 |
| 20260902112424 | 73 | 74 | 0.0 | 0.0 | 0.00 | 0.00 | 0.00 | 99 | 1014.0 |
| 20260902111920 | 73 | 74 | 0.0 | 0.0 | 0.00 | 0.00 | 0.00 | 98 | 1013.9 |
| 20260902111417 | 73 | 74 | 0.0 | 0.0 | 0.00 | 0.00 | 0.00 | 98 | 1014.1 |
| 20260902110912 | 73 | 74 | 0.0 | 0.0 | 0.00 | 0.00 | 0.00 | 98 | 1013.8 |
| 20260902110407 | 73 | 74 | 0.0 | 1.0 | 0.00 | 0.00 | 0.00 | 98 | 1014.0 |
| 20260902105902 | 73 | 66 | 0.0 | 2.0 | 0.00 | 0.00 | 0.00 | 98 | 1013.8 |
| 20260902105357 | 73 | 82 | 1.0 | 1.0 | 0.00 | 0.00 | 0.00 | 98 | 1013.9 |
| 20260902104851 | 73 | 8 | 0.0 | 0.0 | 0.00 | 0.00 | 0.00 | 98 | 1014.0 |
| 20260902104347 | 73 | 8 | 0.0 | 0.0 | 0.00 | 0.00 | 0.00 | 98 | 1014.0 |
| 20260902103842 | 73 | 8 | 0.0 | 0.0 | 0.00 | 0.00 | 0.00 | 98 | 1014.2 |
| 20260902103337 | 73 | 8 | 0.0 | 0.0 | 0.00 | 0.00 | 0.00 | 98 | 1013.8 |
| 20260902102831 | 73 | 8 | 0.0 | 0.0 | 0.00 | 0.00 | 0.00 | 97 | 1013.7 |
| 20260902102330 | 73 | 23 | 0.0 | 0.0 | 0.00 | 0.00 | 0.00 | 97 | 1013.8 |
| 20260902101825 | 73 | 15 | 0.0 | 0.0 | 0.00 | 0.00 | 0.00 | 97 | 1014.0 |
| 20260902101324 | 73 | 15 | 0.0 | 0.0 | 0.00 | 0.00 | 0.00 | 97 | 1013.7 |
| 20260902100818 | 74 | 15 | 0.0 | 0.0 | 0.00 | 0.00 | 0.00 | 97 | 1013.9 |
| 20260902100312 | 74 | 15 | 0.0 | 0.0 | 0.00 | 0.00 | 0.00 | 97 | 1013.9 |
| 20260902095807 | 74 | 15 | 0.0 | 0.0 | 0.00 | 0.00 | 0.00 | 96 | 1013.8 |
| 20260902095306 | 74 | 15 | 0.0 | 1.0 | 0.00 | 0.00 | 0.00 | 96 | 1013.8 |
| 20260902094757 | 74 | 15 | 0.0 | 0.0 | 0.00 | 0.00 | 0.00 | 95 | 1013.8 |
| 20260902094253 | 74 | 15 | 0.0 | 0.0 | 0.00 | 0.00 | 0.00 | 96 | 1013.7 |
| 20260902093752 | 75 | 15 | 0.0 | 0.0 | 0.00 | 0.00 | 0.00 | 95 | 1013.7 |
| 20260902093248 | 74 | 15 | 0.0 | 0.0 | 0.00 | 0.00 | 0.00 | 95 | 1013.7 |
| 20260902092746 | 74 | 15 | 0.0 | 0.0 | 0.00 | 0.00 | 0.00 | 95 | 1013.4 |
| 20260902092242 | 75 | 15 | 0.0 | 0.0 | 0.00 | 0.00 | 0.00 | 95 | 1013.7 |
| 20260902091741 | 75 | 261 | 0.0 | 0.0 | 0.00 | 0.00 | 0.00 | 95 | 1013.8 |
| 20260902091237 | 75 | 261 | 0.0 | 0.0 | 0.00 | 0.00 | 0.00 | 95 | 1013.6 |
| 20260902090733 | 75 | 261 | 0.0 | 0.0 | 0.00 | 0.00 | 0.00 | 95 | 1013.5 |
| 20260902090232 | 75 | 261 | 0.0 | 2.0 | 0.00 | 0.00 | 0.00 | 95 | 1013.9 |
| 20260902085727 | 75 | 255 | 3.0 | 3.0 | 0.00 | 0.00 | 0.00 | 95 | 1013.6 |
| 20260902085222 | 75 | 254 | 2.0 | 3.0 | 0.00 | 0.00 | 0.00 | 95 | 1013.7 |
| 20260902084718 | 75 | 243 | 2.0 | 2.0 | 0.00 | 0.00 | 0.00 | 95 | 1013.5 |
| 20260902084214 | 75 | 220 | 0.0 | 2.0 | 0.00 | 0.00 | 0.00 | 95 | 1013.5 |
| 20260902083709 | 75 | 249 | 1.0 | 2.0 | 0.00 | 0.00 | 0.00 | 94 | 1013.6 |
| 20260902083208 | 75 | 246 | 0.0 | 1.0 | 0.00 | 0.00 | 0.00 | 94 | 1013.3 |
| 20260902082704 | 75 | 237 | 2.0 | 3.0 | 0.00 | 0.00 | 0.00 | 95 | 1013.4 |
| 20260902082200 | 75 | 259 | 3.0 | 4.0 | 0.00 | 0.00 | 0.00 | 95 | 1013.4 |
| 20260902081656 | 75 | 257 | 2.0 | 3.0 | 0.00 | 0.00 | 0.00 | 95 | 1013.6 |
| 20260902081151 | 75 | 240 | 1.0 | 1.0 | 0.00 | 0.00 | 0.00 | 95 | 1013.5 |
| 20260902080646 | 75 | 225 | 2.0 | 2.0 | 0.00 | 0.00 | 0.00 | 95 | 1013.9 |
| 20260902080143 | 75 | 195 | 0.0 | 0.0 | 0.00 | 0.00 | 0.00 | 95 | 1013.9 |
| 20260902075643 | 75 | 195 | 0.0 | 2.0 | 0.00 | 0.00 | 0.00 | 95 | 1013.9 |
| 20260902075139 | 75 | 203 | 0.0 | 0.0 | 0.00 | 0.00 | 0.00 | 95 | 1013.7 |
| 20260902074634 | 75 | 203 | 1.0 | 1.0 | 0.00 | 0.00 | 0.00 | 95 | 1013.8 |
| 20260902074129 | 75 | 254 | 0.0 | 0.0 | 0.00 | 0.00 | 0.00 | 94 | 1014.0 |
| 20260902073624 | 75 | 0 | 0.0 | 0.0 | 0.00 | 0.00 | 0.00 | 94 | 1014.0 |
| 20260902073120 | 75 | 270 | 0.0 | 0.0 | 0.00 | 0.00 | 0.00 | 94 | 1013.9 |
| 20260902072616 | 75 | 270 | 0.0 | 0.0 | 0.00 | 0.00 | 0.00 | 94 | 1014.1 |
| 20260902072112 | 75 | 279 | 0.0 | 0.0 | 0.00 | 0.00 | 0.00 | 94 | 1014.1 |
| 20260902071607 | 76 | 0 | 1.0 | 1.0 | 0.00 | 0.00 | 0.00 | 93 | 1014.1 |
| 20260902071103 | 76 | 246 | 0.0 | 0.0 | 0.00 | 0.00 | 0.00 | 93 | 1014.2 |
| 20260902070558 | 76 | 246 | 0.0 | 0.0 | 0.00 | 0.00 | 0.00 | 93 | 1014.2 |
| 20260902070047 | 76 | 246 | 0.0 | 0.0 | 0.00 | 0.00 | 0.00 | 93 | 1014.2 |
| 20260902065546 | 76 | 261 | 0.0 | 1.0 | 0.00 | 0.00 | 0.00 | 93 | 1014.4 |
| 20260902065043 | 76 | 200 | 0.0 | 1.0 | 0.00 | 0.00 | 0.00 | 92 | 1014.2 |
| 20260902064538 | 76 | 254 | 0.0 | 0.0 | 0.00 | 0.00 | 0.00 | 92 | 1014.5 |
| 20260902064033 | 76 | 239 | 2.0 | 2.0 | 0.00 | 0.00 | 0.00 | 92 | 1014.5 |
| 20260902063532 | 76 | 279 | 0.0 | 1.0 | 0.00 | 0.00 | 0.00 | 92 | 1014.2 |
| 20260902063028 | 76 | 60 | 0.0 | 1.0 | 0.00 | 0.00 | 0.00 | 92 | 1014.3 |
| 20260902062526 | 76 | 294 | 0.0 | 2.0 | 0.00 | 0.00 | 0.00 | 92 | 1014.4 |
| 20260902062022 | 76 | 20 | 0.0 | 0.0 | 0.00 | 0.00 | 0.00 | 92 | 1014.3 |
| 20260902061516 | 76 | 20 | 0.0 | 0.0 | 0.00 | 0.00 | 0.00 | 91 | 1014.5 |
| 20260902061012 | 76 | 20 | 0.0 | 0.0 | 0.00 | 0.00 | 0.00 | 91 | 1014.3 |
| 20260902060508 | 76 | 261 | 0.0 | 0.0 | 0.00 | 0.00 | 0.00 | 91 | 1014.3 |
| 20260902060004 | 76 | 261 | 0.0 | 0.0 | 0.00 | 0.00 | 0.00 | 91 | 1014.5 |
| 20260902055500 | 77 | 237 | 0.0 | 2.0 | 0.00 | 0.00 | 0.00 | 90 | 1014.2 |
| 20260902054955 | 77 | 75 | 0.0 | 0.0 | 0.00 | 0.00 | 0.00 | 89 | 1014.3 |
| 20260902054450 | 77 | 75 | 0.0 | 0.0 | 0.00 | 0.00 | 0.00 | 89 | 1014.1 |
| 20260902053946 | 77 | 246 | 0.0 | 0.0 | 0.00 | 0.00 | 0.00 | 89 | 1014.2 |
| 20260902053441 | 77 | 246 | 0.0 | 1.0 | 0.00 | 0.00 | 0.00 | 88 | 1014.3 |
| 20260902052940 | 77 | 270 | 0.0 | 1.0 | 0.00 | 0.00 | 0.00 | 88 | 1014.2 |
| 20260902052435 | 77 | 82 | 0.0 | 1.0 | 0.00 | 0.00 | 0.00 | 88 | 1014.1 |
| 20260902051930 | 77 | 151 | 0.0 | 0.0 | 0.00 | 0.00 | 0.00 | 89 | 1014.2 |
| 20260902051425 | 77 | 254 | 0.0 | 1.0 | 0.00 | 0.00 | 0.00 | 89 | 1014.2 |
| 20260902050924 | 77 | 249 | 0.0 | 2.0 | 0.00 | 0.00 | 0.00 | 89 | 1013.9 |
| 20260902050424 | 77 | 254 | 0.0 | 2.0 | 0.00 | 0.00 | 0.00 | 88 | 1014.2 |
| 20260902045919 | 77 | 262 | 1.0 | 2.0 | 0.00 | 0.00 | 0.00 | 87 | 1014.0 |
| 20260902045414 | 77 | 270 | 0.0 | 0.0 | 0.00 | 0.00 | 0.00 | 87 | 1014.3 |
| 20260902044910 | 77 | 74 | 0.0 | 0.0 | 0.00 | 0.00 | 0.00 | 88 | 1014.2 |
| 20260902044405 | 77 | 74 | 0.0 | 0.0 | 0.00 | 0.00 | 0.00 | 88 | 1014.1 |
| 20260902043901 | 77 | 74 | 0.0 | 0.0 | 0.00 | 0.00 | 0.00 | 87 | 1014.3 |
| 20260902043355 | 78 | 74 | 0.0 | 0.0 | 0.00 | 0.00 | 0.00 | 86 | 1014.5 |
| 20260902042850 | 78 | 74 | 0.0 | 0.0 | 0.00 | 0.00 | 0.00 | 86 | 1014.3 |
| 20260902042344 | 78 | 74 | 0.0 | 0.0 | 0.00 | 0.00 | 0.00 | 85 | 1014.4 |
| 20260902041839 | 78 | 74 | 0.0 | 0.0 | 0.00 | 0.00 | 0.00 | 85 | 1014.3 |
| 20260902041334 | 79 | 74 | 0.0 | 0.0 | 0.00 | 0.00 | 0.00 | 85 | 1014.5 |
| 20260902040832 | 79 | 74 | 0.0 | 0.0 | 0.00 | 0.00 | 0.00 | 85 | 1014.3 |
| 20260902040328 | 79 | 74 | 1.0 | 2.0 | 0.00 | 0.00 | 0.00 | 85 | 1014.4 |
| 20260902035827 | 79 | 8 | 0.0 | 0.0 | 0.00 | 0.00 | 0.00 | 84 | 1014.3 |
| 20260902035323 | 79 | 8 | 0.0 | 0.0 | 0.00 | 0.00 | 0.00 | 83 | 1014.2 |
| 20260902034821 | 79 | 63 | 0.0 | 0.0 | 0.00 | 0.00 | 0.00 | 82 | 1014.0 |
| 20260902034317 | 79 | 63 | 0.0 | 0.0 | 0.00 | 0.00 | 0.00 | 82 | 1014.2 |
| 20260902033814 | 80 | 63 | 0.0 | 0.0 | 0.00 | 0.00 | 0.00 | 81 | 1014.0 |
| 20260902033310 | 80 | 63 | 0.0 | 0.0 | 0.00 | 0.00 | 0.00 | 81 | 1013.9 |
| 20260902032809 | 80 | 63 | 0.0 | 0.0 | 0.00 | 0.00 | 0.00 | 80 | 1014.0 |
| 20260902032306 | 80 | 63 | 0.0 | 0.0 | 0.00 | 0.00 | 0.00 | 79 | 1014.2 |
| 20260902031803 | 81 | 63 | 0.0 | 0.0 | 0.00 | 0.00 | 0.00 | 79 | 1013.9 |
| 20260902031300 | 81 | 63 | 0.0 | 0.0 | 0.00 | 0.00 | 0.00 | 78 | 1014.0 |
| 20260902030755 | 82 | 63 | 0.0 | 0.0 | 0.00 | 0.00 | 0.00 | 76 | 1013.7 |
| 20260902030250 | 82 | 63 | 0.0 | 0.0 | 0.00 | 0.00 | 0.00 | 76 | 1014.0 |
| 20260902025748 | 82 | 0 | 0.0 | 1.0 | 0.00 | 0.00 | 0.00 | 76 | 1013.8 |
| 20260902025243 | 83 | 111 | 1.0 | 1.0 | 0.00 | 0.00 | 0.00 | 75 | 1013.7 |
| 20260902024738 | 83 | 165 | 0.0 | 1.0 | 0.00 | 0.00 | 0.00 | 74 | 1013.7 |
| 20260902024234 | 83 | 157 | 0.0 | 2.0 | 0.00 | 0.00 | 0.00 | 74 | 1013.7 |
| 20260902023729 | 83 | 66 | 0.0 | 1.0 | 0.00 | 0.00 | 0.00 | 74 | 1013.5 |
| 20260902023224 | 84 | 107 | 0.0 | 2.0 | 0.00 | 0.00 | 0.00 | 73 | 1013.5 |
| 20260902022724 | 84 | 90 | 0.0 | 3.0 | 0.00 | 0.00 | 0.00 | 73 | 1013.4 |
| 20260902022220 | 84 | 82 | 0.0 | 1.0 | 0.00 | 0.00 | 0.00 | 73 | 1013.1 |
| 20260902021715 | 84 | 90 | 0.0 | 2.0 | 0.00 | 0.00 | 0.00 | 72 | 1013.2 |
| 20260902021209 | 84 | 98 | 0.0 | 5.0 | 0.00 | 0.00 | 0.00 | 72 | 1012.9 |
| 20260902020706 | 84 | 139 | 0.0 | 4.0 | 0.00 | 0.00 | 0.00 | 72 | 1013.1 |
| 20260902020202 | 85 | 101 | 0.0 | 4.0 | 0.00 | 0.00 | 0.00 | 71 | 1013.2 |
| 20260902015657 | 85 | 105 | 2.0 | 4.0 | 0.00 | 0.00 | 0.00 | 71 | 1012.9 |
| 20260902015153 | 85 | 103 | 2.0 | 5.0 | 0.00 | 0.00 | 0.00 | 70 | 1013.0 |
| 20260902014648 | 85 | 90 | 2.0 | 5.0 | 0.00 | 0.00 | 0.00 | 69 | 1012.7 |
| 20260902014138 | 86 | 112 | 4.0 | 7.0 | 0.00 | 0.00 | 0.00 | 69 | 1012.7 |
| 20260902013637 | 86 | 100 | 2.0 | 6.0 | 0.00 | 0.00 | 0.00 | 68 | 1012.9 |
| 20260902013133 | 86 | 105 | 3.0 | 9.0 | 0.00 | 0.00 | 0.00 | 67 | 1012.4 |
| 20260902012628 | 87 | 90 | 1.0 | 9.0 | 0.00 | 0.00 | 0.00 | 67 | 1012.4 |
| 20260902012124 | 87 | 85 | 2.0 | 7.0 | 0.00 | 0.00 | 0.00 | 67 | 1012.4 |
| 20260902011619 | 88 | 99 | 1.0 | 8.0 | 0.00 | 0.00 | 0.00 | 65 | 1012.4 |
| 20260902011119 | 88 | 129 | 2.0 | 8.0 | 0.00 | 0.00 | 0.00 | 64 | 1012.3 |
| 20260902010612 | 89 | 96 | 5.0 | 9.0 | 0.00 | 0.00 | 0.00 | 61 | 1012.2 |
| 20260902010108 | 90 | 66 | 3.0 | 5.0 | 0.00 | 0.00 | 0.00 | 58 | 1012.1 |
| 20260902005606 | 90 | 77 | 0.0 | 2.0 | 0.00 | 0.00 | 0.00 | 56 | 1012.0 |
| 20260902005102 | 91 | 69 | 0.0 | 2.0 | 0.00 | 0.00 | 0.00 | 54 | 1011.8 |
| 20260902004601 | 92 | 82 | 0.0 | 2.0 | 0.00 | 0.00 | 0.00 | 53 | 1012.0 |
| 20260902004056 | 92 | 71 | 0.0 | 3.0 | 0.00 | 0.00 | 0.00 | 52 | 1011.9 |
| 20260902003552 | 92 | 109 | 2.0 | 2.0 | 0.00 | 0.00 | 0.00 | 52 | 1012.0 |
| 20260902003047 | 93 | 48 | 2.0 | 2.0 | 0.00 | 0.00 | 0.00 | 51 | 1011.9 |
| 20260902002543 | 93 | 102 | 2.0 | 2.0 | 0.00 | 0.00 | 0.00 | 50 | 1012.0 |
| 20260902002037 | 94 | 103 | 0.0 | 3.0 | 0.00 | 0.00 | 0.00 | 49 | 1011.7 |
| 20260902001532 | 95 | 90 | 1.0 | 1.0 | 0.00 | 0.00 | 0.00 | 49 | 1011.6 |
| 20260902001027 | 95 | 90 | 0.0 | 2.0 | 0.00 | 0.00 | 0.00 | 48 | 1011.7 |
| 20260902000522 | 96 | 168 | 0.0 | 2.0 | 0.00 | 0.00 | 0.00 | 48 | 1011.9 |
| 20260902000018 | 96 | 139 | 0.0 | 2.0 | 0.00 | 0.00 | 0.00 | 47 | 1011.8 |
| 20260901235512 | 96 | 90 | 0.0 | 3.0 | 0.00 | 0.00 | 0.00 | 47 | 1011.8 |
| 20260901235008 | 96 | 23 | 3.0 | 4.0 | 0.00 | 0.00 | 0.00 | 47 | 1011.7 |
| 20260901234506 | 95 | 97 | 0.0 | 3.0 | 0.00 | 0.00 | 0.00 | 48 | 1011.8 |
| 20260901234002 | 95 | 74 | 0.0 | 5.0 | 0.00 | 0.00 | 0.00 | 48 | 1011.7 |
| 20260901233456 | 95 | 97 | 1.0 | 3.0 | 0.00 | 0.00 | 0.00 | 49 | 1011.9 |
| 20260901232953 | 96 | 90 | 2.0 | 3.0 | 0.00 | 0.00 | 0.00 | 48 | 1012.0 |
| 20260901232448 | 95 | 86 | 3.0 | 5.0 | 0.00 | 0.00 | 0.00 | 49 | 1011.9 |
| 20260901231943 | 95 | 96 | 2.0 | 3.0 | 0.00 | 0.00 | 0.00 | 49 | 1011.6 |
| 20260901231439 | 95 | 98 | 3.0 | 9.0 | 0.00 | 0.00 | 0.00 | 49 | 1012.0 |
| 20260901230936 | 97 | 94 | 5.0 | 7.0 | 0.00 | 0.00 | 0.00 | 48 | 1012.0 |
| 20260901230435 | 97 | 81 | 3.0 | 7.0 | 0.00 | 0.00 | 0.00 | 47 | 1011.8 |
| 20260901225930 | 97 | 59 | 5.0 | 5.0 | 0.00 | 0.00 | 0.00 | 46 | 1011.9 |
| 20260901225424 | 96 | 75 | 5.0 | 7.0 | 0.00 | 0.00 | 0.00 | 48 | 1011.9 |
| 20260901224920 | 96 | 11 | 0.0 | 4.0 | 0.00 | 0.00 | 0.00 | 48 | 1011.9 |
| 20260901224416 | 97 | 79 | 3.0 | 3.0 | 0.00 | 0.00 | 0.00 | 46 | 1012.0 |
| 20260901223912 | 97 | 79 | 4.0 | 8.0 | 0.00 | 0.00 | 0.00 | 47 | 1012.0 |
| 20260901223407 | 96 | 21 | 4.0 | 5.0 | 0.00 | 0.00 | 0.00 | 47 | 1012.1 |
| 20260901222902 | 96 | 64 | 4.0 | 9.0 | 0.00 | 0.00 | 0.00 | 48 | 1012.2 |
| 20260901222358 | 96 | 96 | 2.0 | 6.0 | 0.00 | 0.00 | 0.00 | 48 | 1011.9 |
| 20260901221854 | 96 | 51 | 5.0 | 7.0 | 0.00 | 0.00 | 0.00 | 47 | 1012.1 |
| 20260901221349 | 96 | 35 | 5.0 | 9.0 | 0.00 | 0.00 | 0.00 | 47 | 1011.9 |
| 20260901220844 | 97 | 94 | 3.0 | 6.0 | 0.00 | 0.00 | 0.00 | 46 | 1012.1 |
| 20260901220342 | 96 | 51 | 0.0 | 6.0 | 0.00 | 0.00 | 0.00 | 48 | 1012.0 |
| 20260901215842 | 96 | 69 | 3.0 | 9.0 | 0.00 | 0.00 | 0.00 | 48 | 1012.0 |
| 20260901215341 | 96 | 90 | 3.0 | 6.0 | 0.00 | 0.00 | 0.00 | 50 | 1012.3 |
| 20260901214839 | 96 | 99 | 0.0 | 3.0 | 0.00 | 0.00 | 0.00 | 50 | 1012.1 |
| 20260901214338 | 96 | 88 | 5.0 | 7.0 | 0.00 | 0.00 | 0.00 | 51 | 1012.1 |
| 20260901213833 | 96 | 70 | 4.0 | 10.0 | 0.00 | 0.00 | 0.00 | 51 | 1012.2 |
| 20260901213327 | 97 | 90 | 3.0 | 12.0 | 0.00 | 0.00 | 0.00 | 49 | 1012.3 |
| 20260901212822 | 97 | 97 | 6.0 | 11.0 | 0.00 | 0.00 | 0.00 | 49 | 1012.1 |
| 20260901212318 | 98 | 96 | 5.0 | 12.0 | 0.00 | 0.00 | 0.00 | 48 | 1012.1 |
| 20260901211814 | 97 | 114 | 5.0 | 9.0 | 0.00 | 0.00 | 0.00 | 50 | 1012.1 |
| 20260901211310 | 97 | 70 | 5.0 | 8.0 | 0.00 | 0.00 | 0.00 | 50 | 1012.1 |
| 20260901210805 | 98 | 29 | 2.0 | 6.0 | 0.00 | 0.00 | 0.00 | 47 | 1012.1 |
| 20260901210301 | 98 | 99 | 0.0 | 4.0 | 0.00 | 0.00 | 0.00 | 46 | 1012.3 |
| 20260901205757 | 98 | 128 | 3.0 | 7.0 | 0.00 | 0.00 | 0.00 | 47 | 1012.1 |
| 20260901205256 | 98 | 87 | 4.0 | 8.0 | 0.00 | 0.00 | 0.00 | 47 | 1012.6 |
| 20260901204752 | 97 | 72 | 3.0 | 4.0 | 0.00 | 0.00 | 0.00 | 47 | 1012.5 |
| 20260901204247 | 97 | 106 | 8.0 | 10.0 | 0.00 | 0.00 | 0.00 | 47 | 1012.5 |
| 20260901203742 | 98 | 41 | 7.0 | 10.0 | 0.00 | 0.00 | 0.00 | 47 | 1012.6 |
| 20260901203242 | 98 | 100 | 3.0 | 9.0 | 0.00 | 0.00 | 0.00 | 47 | 1012.6 |
| 20260901202741 | 99 | 124 | 0.0 | 9.0 | 0.00 | 0.00 | 0.00 | 45 | 1012.7 |
| 20260901202237 | 97 | 20 | 3.0 | 8.0 | 0.00 | 0.00 | 0.00 | 47 | 1012.7 |
| 20260901201732 | 97 | 77 | 2.0 | 9.0 | 0.00 | 0.00 | 0.00 | 47 | 1013.0 |
| 20260901201226 | 99 | 102 | 6.0 | 10.0 | 0.00 | 0.00 | 0.00 | 46 | 1013.2 |
| 20260901200720 | 99 | 39 | 4.0 | 11.0 | 0.00 | 0.00 | 0.00 | 47 | 1013.0 |
| 20260901200215 | 100 | 39 | 5.0 | 7.0 | 0.00 | 0.00 | 0.00 | 46 | 1013.2 |
| 20260901195713 | 97 | 18 | 2.0 | 9.0 | 0.00 | 0.00 | 0.00 | 48 | 1013.4 |
| 20260901195207 | 96 | 0 | 0.0 | 7.0 | 0.00 | 0.00 | 0.00 | 49 | 1013.3 |
| 20260901194703 | 97 | 73 | 3.0 | 5.0 | 0.00 | 0.00 | 0.00 | 49 | 1013.6 |
| 20260901194152 | 98 | 105 | 3.0 | 7.0 | 0.00 | 0.00 | 0.00 | 48 | 1013.5 |
| 20260901193648 | 98 | 29 | 3.0 | 8.0 | 0.00 | 0.00 | 0.00 | 47 | 1013.6 |
| 20260901193142 | 99 | 0 | 1.0 | 4.0 | 0.00 | 0.00 | 0.00 | 48 | 1013.4 |
| 20260901192637 | 99 | 3 | 2.0 | 5.0 | 0.00 | 0.00 | 0.00 | 47 | 1013.5 |
| 20260901192132 | 99 | 11 | 4.0 | 5.0 | 0.00 | 0.00 | 0.00 | 47 | 1013.6 |
| 20260901191628 | 99 | 90 | 0.0 | 4.0 | 0.00 | 0.00 | 0.00 | 48 | 1013.6 |